Regional Weather Roundup
Issued by NWS

Home | Current Version | Previous Version | Text Only | Print | Product List | Glossary On
Versions: 1 2 3 4 5 6 7 8 9 10 11 12 13 14 15 16 17 18 19 20 21 22 23 24 25 26 27
000
ASUS45 KBOU 280007
RWRCO

WEATHER ROUNDUP FOR COLORADO
NATIONAL WEATHER SERVICE DENVER/BOULDER CO
600 PM MDT FRI MAY 27 2016

NOTE: "FAIR" INDICATES FEW OR NO CLOUDS BELOW 12000 FEET WITH NO
SIGNIFICANT WEATHER AND/OR OBSTRUCTIONS TO VISIBILITY.

COZ001>005-013-030-031-280100-
...NORTHWEST COLORADO...

CITY           SKY/WX    TMP DP  RH WIND       PRES   REMARKS
CRAIG          LGT RAIN  48  40  73 E14       29.99R
HAYDEN         FAIR      48  37  66 E17       29.99S
MEEKER         FAIR      50  41  71 E6        29.99S
MOUNT WERNER   NOT AVBL
STEAMBOAT SPGS CLOUDY    45  38  78 CALM      30.01R
WALDEN         CLOUDY    45  32  61 NW20G26   30.02R
$$

COZ006>008-011-280100-
...WEST CENTRAL VALLEYS...

CITY           SKY/WX    TMP DP  RH WIND       PRES   REMARKS
GRAND JUNCTION PTSUNNY   68  32  26 N6        29.87S
MONTROSE       FAIR      62  30  29 W13       29.95R
EAGLE          PTSUNNY   55  39  54 SW16      29.99S
RIFLE          PTSUNNY   59  35  40 W10       29.95R
DELTA          FAIR      68  32  26 SW14      29.90S
NUCLA          FAIR      68  28  22 N13       29.95S
$$

COZ017>023-064>068-280100-
...SOUTHWEST COLORADO...

CITY           SKY/WX    TMP DP  RH WIND       PRES   REMARKS
DURANGO        PTSUNNY   56  32  40 N15G24    29.95R
CORTEZ         FAIR      69  26  20 VRB5G23   29.91S
PAGOSA SPRINGS PTSUNNY   47  38  70 S9        30.01F
TELLURIDE      FAIR      50  30  46 S5        30.09S
WOLF CREEK PAS LGT SNOW  32  30  93 S5        30.19F WCI  27
$$

COZ009-010-012-014-032>034-037-058>063-280100-
...CENTRAL COLORADO...

CITY           SKY/WX    TMP DP  RH WIND       PRES   REMARKS
ASPEN          FAIR      49  34  56 N6        30.03R
BUENA VISTA    FAIR      50  32  50 NW30G39   29.97R
COPPER MTN     NOT AVBL
BERTHOUD PASS  CLOUDY    27  18  69 NW26G33   30.13R HAZE    WCI  11
COTTONWOOD PAS FAIR      48  21  34 W6G22     30.04R
GUNNISON       CLOUDY    45  36  70 NW3       30.07R
KREMMLING      FAIR      54  30  40 SE5       29.98R
LEADVILLE      SNOW      33  31  92 NW13G25   30.09R VSB 1/2 WCI  24
MONARCH PASS   CLOUDY    32  28  86 W21       30.24S WCI  20
SALIDA         CLOUDY    56  33  42 W5        30.03R
SUNLIGHT       FAIR      39  32  75 CALM      30.17R
WILKERSON PASS SNOW      32  32 100 NE6       30.13R VSB<1/4 WCI  26
$$

COZ069>075-280100-
...SAN LUIS VALLEY/SANGRE DE CRISTO MOUNTAINS...

CITY           SKY/WX    TMP DP  RH WIND       PRES   REMARKS
ALAMOSA        LGT RAIN  47  36  65 SW7       29.96R
LA VETA PASS   LGT RAIN  37  32  81 CALM      30.07S
SAGUACHE       PTSUNNY   54  32  43 N16G29    29.97R
$$

COZ035-036-038>040-280100-
...NORTHERN COLORADO FRONT RANGE...

CITY           SKY/WX    TMP DP  RH WIND       PRES   REMARKS
DENVER INTL AP PTSUNNY   57  41  55 N8        29.91R
DMNS CITY PARK   N/A     57  39  51 NE6G16    29.93R
AURORA         PTSUNNY   55  42  63 NE9       29.93R
FRONT RANGE AP PTSUNNY   57  43  58 N7        29.92R
ERIE MUNI ARPT PTSUNNY   56  43  60 N6        29.92R
BOULDER MUN AP LGT RAIN  54  48  82 W7        29.93R
CENTENNIAL     PTSUNNY   55  40  56 N10       29.93R
BROOMFIELD     NOT AVBL
FORT COLLINS   FAIR      34 N/A N/A E5        29.91S WCI  30
LONGMONT       PTSUNNY   57  46  66 W3        29.94R
$$

COZ041-046-047-076>085-087-088-280100-
...PIKES PEAK/PALMER DIVIDE AND SOUTHERN FOOTHILLS...

CITY           SKY/WX    TMP DP  RH WIND       PRES   REMARKS
COLO. SPRINGS  PTSUNNY   59  36  42 N23G31    29.93R
A. F. ACADEMY  FAIR      55  37  50 NW12      29.93R
SCHRIEVER AFB  NOT AVBL
ELLICOTT       FAIR     N/A N/A N/A NE18      29.90R
FALCON         FAIR      53  36  51 N14G22    29.96R
FORT CARSON    FAIR      58  38  46 N18G24    29.90R
LIMON          FAIR      54  46  74 N16       29.88R
MONUMENT HILL  FAIR      48  37  66 N14       29.97R
TRINIDAD       PTSUNNY   60  38  43 N13G18    29.90S
$$

COZ042>045-048>051-090-091-280100-
...NORTHEAST COLORADO...

CITY           SKY/WX    TMP DP  RH WIND       PRES   REMARKS
GREELEY ARPT   FAIR      61  43  51 NE8       29.89S
AKRON          FAIR      56  45  66 NE20      29.84F
BURLINGTON     TSTM      54  50  86 N14       29.82R
WRAY           PTSUNNY   55  46  71 E3        29.81R
STERLING       FAIR      59  46  63 NE13      29.83S
HOLYOKE        FAIR      61  52  72 N15       29.81S
FORT MORGAN    FAIR      58  41  52 N17G23    29.87S
$$

COZ086-089-092>099-280100-
...SOUTHEAST COLORADO...

CITY           SKY/WX    TMP DP  RH WIND       PRES   REMARKS
PUEBLO         LGT RAIN  66  40  38 N20       29.86R
LA JUNTA       FAIR      59  44  57 N16       29.85R
LAMAR          FAIR      61  48  62 N21G33    29.76S
SPRINGFIELD      N/A     61  43  51 NW23G30   29.79R
$$




USA.gov is the U.S. government's official web portal to all federal, state and local government web resources and services.